EW1944 Weather Reports


time (UTC)temp
F
wind
direction
speed
knots
gust
knots
rain 1hr
in
rain 24hr
in
rain mn
in
humidity
%
barometer
mb
20260906203032 81 1 0.0 3.5 0.00 0.00 0.00 49 1018.9
20260906201543 81 128 0.0 2.6 0.00 0.00 0.00 42 1019.0
20260906200022 81 27 0.0 4.3 0.00 0.00 0.00 40 1019.2
20260906194608 80 11 0.0 3.5 0.00 0.00 0.00 45 1019.3
20260906194502 80 37 1.7 3.5 0.00 0.00 0.00 42 1019.4
20260906193037 81 136 0.9 3.5 0.00 0.00 0.00 44 1019.6
20260906191516 79 270 0.9 4.3 0.00 0.00 0.00 44 1019.9
20260906190129 81 286 1.7 4.3 0.00 0.00 0.00 40 1019.8
20260906184550 80 233 0.0 2.6 0.00 0.00 0.00 44 1020.1
20260906183043 82 199 1.7 3.5 0.00 0.00 0.00 39 1020.1
20260906181520 81 149 0.9 5.2 0.00 0.00 0.00 42 1020.2
20260906180051 81 300 0.0 2.6 0.00 0.00 0.00 47 1020.2
20260906174539 81 190 0.9 5.2 0.00 0.00 0.00 46 1020.2
20260906173034 80 176 0.9 4.3 0.00 0.00 0.00 47 1020.3
20260906171514 80 134 0.0 5.2 0.00 0.00 0.00 47 1020.3
20260906170047 78 66 0.0 7.0 0.00 0.00 0.00 54 1020.4
20260906164529 77 17 0.0 3.5 0.00 0.00 0.00 58 1020.7
20260906163007 75 146 0.0 2.6 0.00 0.00 0.00 52 1020.7
20260906161546 72 249 0.9 2.6 0.00 0.00 0.00 63 1020.7
20260906160021 71 17 0.0 2.6 0.00 0.00 0.00 67 1020.6
20260906154604 69 359 0.9 2.6 0.00 0.00 0.00 70 1020.9
20260906154501 69 172 0.9 2.6 0.00 0.00 0.00 70 1020.9
20260906153038 67 153 0.0 1.7 0.00 0.00 0.00 77 1020.9
20260906151517 65 259 0.0 0.9 0.00 0.00 0.00 84 1021.0
20260906150056 63 238 0.9 1.7 0.00 0.00 0.00 85 1020.9
20260906144531 61 194 0.0 2.6 0.00 0.00 0.00 92 1020.9
20260906143016 60 175 0.9 1.7 0.00 0.00 0.00 98 1020.9
20260906141545 58 265 0.9 1.7 0.00 0.00 0.00 98 1020.9
20260906140040 57 28 0.0 0.0 0.00 0.00 0.00 98 1021.0
20260906134513 56 28 0.0 0.0 0.00 0.00 0.00 98 1020.8
20260906133107 56 28 0.0 0.0 0.00 0.00 0.00 98 1020.8
20260906131536 54 28 0.0 0.0 0.00 0.00 0.00 97 1020.7
20260906130011 52 28 0.0 0.0 0.00 0.00 0.00 98 1020.6
20260906124550 50 28 0.0 0.0 0.00 0.00 0.00 97 1020.6
20260906123040 48 28 0.0 0.0 0.00 0.00 0.00 97 1020.7
20260906121536 47 28 0.0 0.0 0.00 0.00 0.00 96 1020.7
20260906120015 47 28 0.0 0.0 0.00 0.00 0.00 96 1020.6
20260906114551 46 28 0.0 0.0 0.00 0.00 0.00 96 1020.4
20260906113038 46 28 0.0 0.0 0.00 0.00 0.00 96 1020.3
20260906111511 46 28 0.0 0.0 0.00 0.00 0.00 96 1020.0
20260906110006 47 28 0.0 0.0 0.00 0.00 0.00 96 1019.9
20260906104555 47 28 0.0 0.0 0.00 0.00 0.00 96 1019.8
20260906103035 47 28 0.0 0.0 0.00 0.00 0.00 96 1019.8
20260906101511 47 28 0.0 0.0 0.00 0.00 0.00 96 1019.8
20260906100050 47 28 0.0 0.0 0.00 0.00 0.00 96 1019.9
20260906094553 47 28 0.0 0.0 0.00 0.00 0.00 96 1019.9
20260906093043 47 28 0.0 0.0 0.00 0.00 0.00 95 1019.9
20260906091507 48 28 0.0 0.0 0.00 0.00 0.00 95 1019.8
20260906090108 48 28 0.0 0.0 0.00 0.00 0.00 96 1019.8
20260906084520 48 28 0.0 0.0 0.00 0.00 0.00 96 1019.8
20260906083014 48 28 0.0 0.0 0.00 0.00 0.00 95 1019.6
20260906081549 48 28 0.0 0.0 0.00 0.00 0.00 95 1019.6
20260906080028 48 28 0.0 0.0 0.00 0.00 0.00 95 1019.4
20260906074514 49 28 0.0 0.0 0.00 0.00 0.00 95 1019.6
20260906073048 49 28 0.0 0.0 0.00 0.00 0.00 95 1019.6
20260906071537 49 28 0.0 0.0 0.00 0.00 0.00 95 1019.6
20260906070016 49 28 0.0 0.0 0.00 0.00 0.00 95 1019.4
20260906064550 49 28 0.0 0.0 0.00 0.00 0.00 95 1019.3
20260906063030 50 28 0.0 0.0 0.00 0.00 0.00 95 1019.3
20260906061521 50 28 0.0 0.0 0.00 0.00 0.00 95 1019.3
20260906060014 50 28 0.0 0.0 0.00 0.00 0.00 95 1019.2
20260906054601 50 28 0.0 0.0 0.00 0.00 0.00 94 1019.2
20260906053028 51 28 0.0 0.0 0.00 0.00 0.00 94 1019.2
20260906051508 51 28 0.0 0.0 0.00 0.00 0.00 94 1018.8
20260906050043 51 28 0.0 0.0 0.00 0.00 0.00 94 1018.8
20260906044532 52 28 0.0 0.0 0.00 0.00 0.00 94 1019.0
20260906043020 52 28 0.0 0.0 0.00 0.00 0.00 94 1018.9
20260906041557 53 28 0.0 0.0 0.00 0.00 0.00 94 1018.6
20260906040035 53 28 0.0 0.0 0.00 0.00 0.00 93 1018.4
20260906034541 53 28 0.0 0.0 0.00 0.00 0.00 93 1018.3
20260906033013 54 28 0.0 0.0 0.00 0.00 0.00 93 1018.4
20260906031547 54 28 0.0 0.0 0.00 0.00 0.00 93 1018.5
20260906030035 55 28 0.0 0.0 0.00 0.00 0.00 93 1018.4
20260906024532 55 28 0.0 0.0 0.00 0.00 0.00 92 1018.2
20260906023033 56 28 0.0 0.0 0.00 0.00 0.00 92 1018.2
20260906021511 56 28 0.0 0.0 0.00 0.00 0.00 91 1018.0
20260906020045 57 28 0.0 0.0 0.00 0.00 0.00 91 1017.8
20260906014539 58 28 0.0 0.0 0.00 0.00 0.00 90 1017.7
20260906013026 58 28 0.0 0.0 0.00 0.00 0.00 90 1017.7
20260906011510 59 28 0.0 0.0 0.00 0.00 0.00 89 1017.7
20260906010108 60 28 0.0 0.0 0.00 0.00 0.00 87 1017.7
20260906004524 62 28 0.0 0.0 0.00 0.00 0.00 84 1017.6
20260906003004 63 28 0.0 0.9 0.00 0.00 0.00 84 1017.7
20260906001605 64 28 0.0 0.9 0.00 0.00 0.00 83 1017.6
20260906000036 66 22 0.0 0.9 0.00 0.00 0.00 81 1017.6
20260905234511 66 28 0.0 2.6 0.00 0.00 0.00 80 1017.7
20260905233050 67 28 0.0 2.6 0.00 0.00 0.00 77 1017.7
20260905231547 67 26 0.9 3.5 0.00 0.00 0.00 75 1017.8
20260905230048 68 5 0.9 4.3 0.00 0.00 0.00 73 1017.8
20260905224531 69 18 0.9 6.1 0.00 0.00 0.00 72 1017.8
20260905223056 70 33 0.0 6.1 0.00 0.00 0.00 73 1017.7
20260905221549 70 25 0.9 4.3 0.00 0.00 0.00 70 1017.6
20260905220040 71 19 0.9 3.5 0.00 0.00 0.00 68 1017.6
20260905214520 72 359 0.9 6.1 0.00 0.00 0.00 68 1017.5
20260905213057 72 7 1.7 7.0 0.00 0.00 0.00 65 1017.5
20260905213002 72 22 1.7 7.0 0.00 0.00 0.00 66 1017.5
20260905211542 73 2 1.7 7.0 0.00 0.00 0.00 64 1017.4
20260905210036 73 46 1.7 7.8 0.00 0.00 0.00 67 1017.2
20260905204524 73 337 0.9 7.0 0.00 0.00 0.00 63 1017.3